Tracking 28895 objects as of 27-May-2024
HD Live streaming from Space Station
objects crossing your sky now

ION SCV-002

Track ION SCV-002 now!
10-day predictions
ION SCV-002 is classified as:


NORAD ID: 47504
Int'l Code: 2021-006CV
Perigee: 493.0 km
Apogee: 514.7 km
Inclination: 97.1 °
Period: 94.5 minutes
Semi major axis: 6874 km
RCS: Unknown
Launch date: January 24, 2021
Source: Italy (IT)
Launch site: AIR FORCE EASTERN TEST RANGE (AFETR)

Uplink (MHz):
Downlink (MHz):
Beacon (MHz):
Mode: 1200bps FSK
Call sign:
Status: Unknown

Your satellite tracking list
Your tracking list is empty




NASA's NSSDC Master Catalog

Two Line Element Set (TLE):
1 47504U 21006CV  24147.79389672  .00007865  00000-0  33579-3 0  9994
2 47504  97.1255 166.3812 0015732 299.0528  60.9133 15.23031719184873
Source of the keplerian elements: AFSPC